Regional Weather Roundup
Issued by NWS

Home | Current Version | Previous Version | Text Only | Print | Product List | Glossary On
Versions: 1 2 3 4 5 6 7 8 9 10 11 12 13 14 15 16 17 18 19 20 21 22 23 24 25 26 27
000
ASUS43 KDMX 232107
RWRIA

WEATHER ROUNDUP FOR IOWA
NATIONAL WEATHER SERVICE DES MOINES IA
400 PM CDT THU OCT 23 2014

NOTE: "FAIR" INDICATES FEW OR NO CLOUDS BELOW 12,000 FEET WITH NO
SIGNIFICANT WEATHER AND/OR OBSTRUCTIONS TO VISIBILITY.

* - THESE STATIONS ARE NOT NWS STATIONS...THUS NOT UNDER NWS
QUALITY CONTROL.  THEY ALSO DO NOT REPORT WEATHER SUCH
AS PRECIPITATION OR FOG.

IAZ001>003-012>014-020>022-031>034-043>046-232200-
   NORTHWEST IOWA

CITY           SKY/WX    TMP DP  RH WIND       PRES   REMARKS
CARROLL *      SUNNY     72  43  35 CALM      30.00S
CHEROKEE *     SUNNY     70  48  46 SW6       29.99F
DENISON *      SUNNY     70  46  43 S5        29.99S
LE MARS *      SUNNY     70  45  40 S10       29.98F
ORANGE CITY *  SUNNY     72  39  30 S8        29.98F
SHELDON *      SUNNY     70  46  43 SW7G16    29.97F
SIOUX CITY     SUNNY     73  45  36 S10       29.98F
SPENCER        SUNNY     70  44  39 W10       29.99S
STORM LAKE *   SUNNY     70  41  35 SW6       30.01S
$$

IAZ055>058-069>071-079>083-090>094-232200-
   SOUTHWEST IOWA

CITY           SKY/WX    TMP DP  RH WIND       PRES   REMARKS
ATLANTIC *     SUNNY     72  43  35 CALM      30.00F
AUDUBON *      SUNNY     72  34  25 CALM      30.02S
CLARINDA *     SUNNY     73  50  43 CALM      30.03S
COUNCIL BLFS * SUNNY     72  48  43 CALM      30.00F
CRESTON *      SUNNY     70  52  52 W6        30.02S
HARLAN  *      SUNNY     72  41  33 CALM      30.04S
LAMONI         SUNNY     67  59  75 CALM      30.03F
RED OAK *      SUNNY     72  52  49 CALM      30.01F
SHENANDOAH *   SUNNY     72  48  43 CALM      30.02F
$$

IAZ047>049-059>061-072>074-084-232200-
   CENTRAL IOWA

CITY           SKY/WX    TMP DP  RH WIND       PRES   REMARKS
AMES           SUNNY     70  50  49 N9        30.00S
ANKENY *       SUNNY     68  52  56 W6        30.00S
CHARITON *     PTSUNNY   64  59  82 S6        30.03S
DES MOINES     MOSUNNY   72  51  47 N5        30.00F
GRINNELL*      MOSUNNY   61  55  82 SW5       30.03S
KNOXVILLE *    PTSUNNY   64  57  77 SW5G12    30.01S
MARSHALLTOWN   SUNNY     66  53  63 NW6       30.01S
PELLA *        SUNNY     66  57  72 CALM      30.03S
PERRY *          N/A     72  46  40 N5        30.00F
$$

IAZ004>006-015-016-023>025-035-036-232200-
   NORTH CENTRAL IOWA

CITY           SKY/WX    TMP DP  RH WIND       PRES   REMARKS
ALGONA *       SUNNY     68  48  49 W8        30.00S
CLARION *      SUNNY     66  48  52 VRB5      30.00F
ESTHERVILLE    SUNNY     70  37  29 W10       29.98S
FORT DODGE *   SUNNY     68  46  45 CALM      30.01S
MASON CITY     SUNNY     67  48  50 W6        30.00F
FOREST CITY *  SUNNY     66  46  48 W7        29.99F
IOWA FALLS *     N/A     68  50  52 W8        30.01F
$$

IAZ007>011-017>019-026>030-037>042-050>054-066-232200-
   NORTHEAST IOWA

CITY           SKY/WX    TMP DP  RH WIND       PRES   REMARKS
CEDAR RAPIDS   CLOUDY    57  51  80 SW6       30.02S
CHARLES CITY * PTSUNNY   57  54  88 CALM      30.02S
CLINTON *      CLOUDY    57  46  67 S9        30.06S
DECORAH *      CLOUDY    50  50 100 VRB3      30.01S FOG
DUBUQUE        CLOUDY    51  49  92 SW7       30.03S
MONTICELLO *   CLOUDY    54  50  87 CALM      30.03S
OELWEIN *      CLOUDY    54  52  94 SW6       30.03S FOG
WATERLOO       CLOUDY    57  53  86 CALM      30.02S
$$

IAZ064-065-067-068-078-232200-
   EAST CENTRAL IOWA

CITY           SKY/WX    TMP DP  RH WIND       PRES   REMARKS
DAVENPORT      CLOUDY    59  46  62 SW12      30.03F
IOWA CITY      CLOUDY    58  52  80 CALM      30.04S
MT. PLEASANT * PTSUNNY   66  50  55 S10       30.03S
MUSCATINE *    CLOUDY    63  48  59 S12       30.03S
QUAD CITIES    CLOUDY    60  47  61 S9        30.03F
$$

IAZ062-063-075>077-085>089-095>099-232200-
   SOUTHEAST IOWA

CITY           SKY/WX    TMP DP  RH WIND       PRES   REMARKS
BURLINGTON     CLOUDY    61  50  67 S12       30.04F
FAIRFIELD *    CLOUDY    66  55  68 W14       30.02S
FORT MADISON * CLOUDY    63  52  67 S12       30.05F
KEOKUK *       CLOUDY    61  52  72 S10       30.04F
OSKALOOSA *    CLOUDY    63  55  77 W9        30.03F
CENTERVILLE *  PTSUNNY   63  59  88 SW8       30.05S
OTTUMWA        CLOUDY    62  56  80 W5        30.03S
WASHINGTON *   CLOUDY    64  57  77 NW6       30.02S
$$

ABBREVIATIONS USED IN REMARKS
   TC - TEMPERATURES IN CELSIUS
  WCI - WIND CHILL INDEX
   HX - HEAT INDEX
  VSB - VISIBILITY
$$




USA.gov is the U.S. government's official web portal to all federal, state and local government web resources and services.